Regional Weather Roundup
Issued by NWS Midland/Odessa, TX

Skip options and go directly to product.
Home | Oldest Version | Next Version | Current Version | All | Text Only | Save Text | Print | Product List | Glossary On

Skip product version selection by date and time.   
104
ASUS44 KMAF 190802
RWRMAF
MIDLAND AREA WEATHER ROUNDUP
NATIONAL WEATHER SERVICE MIDLAND TX
300 AM CDT SUN OCT 19 2014

...IN SOUTHWEST TEXAS AND SOUTHEAST NEW MEXICO...

CITY           SKY/WX    TMP DP  RH WIND       PRES   REMARKS
ALPINE         MOCLDY    62  51  66 CALM      30.17S
ANDREWS        MOCLDY    57  48  70 CALM      30.14S
ARTESIA        NOT AVBL
BIG SPRING     PTCLDY    61  50  66 CALM      30.12F
CARLSBAD       PTCLDY    58  51  78 W6        30.13S
DRYDEN           N/A     67  57  70 E6        30.04S
FORT STOCKTON  CLEAR     61  52  72 E6        30.09S
GUAD PASS      NOT AVBL
HOBBS          PTCLDY    54  50  87 NE7       30.16F
MARFA          MOCLDY    59  48  67 CALM      30.16F
MIDLAND AIRPK  PTCLDY    61  50  67 NE3       30.12S
MIDLAND INTL   PTCLDY    62  50  64 E7        30.10F
ODESSA         PTCLDY    61  49  64 NE6       30.12S
PECOS          PTCLDY    63  51  65 NE8       30.08S
PRESIDIO       FAIR      70  54  55 NE9       30.02S
SEMINOLE       MOCLDY    54  47  79 NE5       30.16F
SNYDER         CLEAR     60  51  71 NE5       30.12S
WINK           CLOUDY    64  52  64 NE3       30.10S
$$
...OTHER STATIONS IN TEXAS...

CITY           SKY/WX    TMP DP  RH WIND       PRES   REMARKS
ABILENE        CLEAR     63  55  75 SE13      30.09F
AMARILLO       CLEAR     46  41  82 S8        30.18F
AUSTIN         PTCLDY    61  60  97 N7        30.06S
BROWNSVILLE    PTCLDY    75  73  93 CALM      29.95F
CORPUS CHRISTI PTCLDY    75  70  84 E7        29.99F
DALLAS FTW     PTCLDY    61  53  75 CALM      30.11R
DEL RIO        CLEAR     74  67  78 E9        30.00F
EL PASO        PTCLDY    64  50  60 NE10      30.07S
HOUSTON INT    PTCLDY    66  64  93 NE3       30.05F
LUBBOCK        PTCLDY    53  45  74 E6        30.15F
SAN ANGELO     CLEAR     60  55  83 NE5       30.08F
SAN ANTONIO    MOCLDY    72  68  87 E6        30.06S
WACO           LGT RAIN  64  59  83 NE3       30.09S
WICHITA FALLS  NOT AVBL
$$
...OTHER LOCATIONS IN NEW MEXICO...

CITY           SKY/WX    TMP DP  RH WIND       PRES   REMARKS
ALAMAGORDO     NOT AVBL
ALBUQUERQUE    PTCLDY    56  45  66 VRB3      30.16S
CANNON AFB     PTCLDY    47  44  91 E3        30.18F
CLOVIS         CLEAR     45  39  81 CALM      30.20F
HOLLOMAN AFB   MOCLDY    57  48  72 NE6       30.10R
ROSWELL        CLEAR     54  50  86 N3        30.16S
RUIDOSO        CLOUDY    50  46  87 SE7       30.27S
SANTA FE       PTCLDY    51  43  74 SE10      30.21S
TRUTH OR CONSE CLOUDY    62  47  57 SE7       30.11S
TUCUMCARI      CLOUDY    57  45  64 S10       30.16S
$$

USA.gov is the U.S. government's official web portal to all federal, state and local government web resources and services.